TimeEST,TemperatureF,Dew PointF,Humidity,Sea Level PressureIn,VisibilityMPH,Wind Direction,Wind SpeedMPH,Gust SpeedMPH,PrecipitationIn,Events,Conditions,WindDirDegrees,DateUTC
12:51 AM,51.1,50.0,96,30.38,10.0,Calm,Calm,-,N/A,,Partly Cloudy,0,2013-01-09 05:51:00
1:51 AM,48.9,48.0,97,30.38,8.0,Calm,Calm,-,N/A,,Clear,0,2013-01-09 06:51:00
2:51 AM,51.1,50.0,96,30.37,10.0,NNE,3.5,-,N/A,,Partly Cloudy,30,2013-01-09 07:51:00
3:51 AM,48.0,46.9,96,30.37,9.0,NNE,3.5,-,N/A,,Clear,30,2013-01-09 08:51:00
4:51 AM,51.1,50.0,96,30.38,10.0,NNE,5.8,-,N/A,,Scattered Clouds,20,2013-01-09 09:51:00
5:51 AM,48.9,48.0,97,30.38,10.0,NNE,6.9,-,N/A,,Clear,20,2013-01-09 10:51:00
6:51 AM,52.0,50.0,93,30.39,10.0,NNE,5.8,-,N/A,,Overcast,30,2013-01-09 11:51:00
7:51 AM,51.1,48.9,92,30.42,10.0,North,6.9,-,N/A,,Overcast,10,2013-01-09 12:51:00
8:51 AM,52.0,48.9,89,30.43,10.0,NE,8.1,-,N/A,,Overcast,40,2013-01-09 13:51:00
9:51 AM,57.9,52.0,81,30.43,10.0,NNE,5.8,-,N/A,,Overcast,20,2013-01-09 14:51:00
10:51 AM,59.0,52.0,78,30.41,10.0,Calm,Calm,-,N/A,,Overcast,0,2013-01-09 15:51:00
11:51 AM,61.0,53.1,75,30.39,10.0,Variable,4.6,-,N/A,,Overcast,0,2013-01-09 16:51:00
12:51 PM,61.0,53.1,75,30.37,10.0,NNE,4.6,-,N/A,,Overcast,30,2013-01-09 17:51:00
1:51 PM,62.1,54.0,75,30.37,10.0,NNE,4.6,-,N/A,,Overcast,30,2013-01-09 18:51:00
2:51 PM,64.0,54.0,70,30.36,10.0,Calm,Calm,-,N/A,,Scattered Clouds,0,2013-01-09 19:51:00
3:51 PM,64.0,53.1,67,30.36,10.0,Calm,Calm,-,N/A,,Clear,0,2013-01-09 20:51:00
4:51 PM,59.0,53.1,81,30.36,10.0,NNE,3.5,-,N/A,,Clear,20,2013-01-09 21:51:00
5:51 PM,57.9,53.1,84,30.38,10.0,NNE,3.5,-,N/A,,Clear,20,2013-01-09 22:51:00
6:51 PM,57.9,53.1,84,30.39,10.0,NNE,4.6,-,N/A,,Mostly Cloudy,20,2013-01-09 23:51:00
7:51 PM,55.9,53.1,90,30.38,9.0,Calm,Calm,-,N/A,,Mostly Cloudy,0,2013-01-10 00:51:00
8:51 PM,55.9,54.0,93,30.35,10.0,Calm,Calm,-,N/A,,Clear,0,2013-01-10 01:51:00
9:51 PM,57.0,53.1,87,30.36,10.0,WNW,4.6,-,N/A,,Clear,290,2013-01-10 02:51:00
10:51 PM,55.9,51.1,84,30.38,10.0,WNW,5.8,-,N/A,,Clear,300,2013-01-10 03:51:00
11:51 PM,55.0,51.1,86,30.39,10.0,WNW,4.6,-,N/A,,Clear,300,2013-01-10 04:51:00